Regional Weather Roundup
Issued by NWS

Home | Current Version | Previous Version | Text Only | Print | Product List | Glossary Off
Versions: 1 2 3 4 5 6 7 8 9 10 11 12 13 14 15 16 17 18 19 20 21 22 23 24 25 26 27 28 29 30 31 32 33 34 35 36 37 38 39 40 41 42 43 44 45 46 47 48 49 50

000
ASUS45 KSLC 050410
RWRUT

UTAH REGIONAL WEATHER ROUNDUP
NATIONAL WEATHER SERVICE SALT LAKE CITY UT
1000 PM MDT SAT JUL 04 2015

UTZ001>011-023>025-050500-

NORTHERN UTAH

CITY           SKY/WX    TMP DP  RH WIND       PRES   REMARKS
BRIGHAM CITY   MOCLDY    84  52  32 MISG      29.95R
HILL AFB       CLOUDY    79  54  41 SE6       30.00R
LOGAN          CLEAR     84  52  33 S22G36    29.91R
OGDEN          CLOUDY    81  54  39 S8        29.97R
PROVO AIRPORT  CLOUDY    81  54  39 CALM      29.99R
SALT LAKE CITY CLOUDY    82  56  40 CALM      29.94R
VERNAL         CLOUDY    77  50  38 S7        29.99R
WENDOVER       CLOUDY    82  45  26 NW21      29.94R
HEBER CITY     CLOUDY    75  50  41 CALM      30.05R
WEST JORDAN    PTCLDY    81  50  34 CALM      29.98R

$$

UTZ012>022-026-027-050500-

SOUTHERN/CENTRAL UTAH

CITY           SKY/WX    TMP DP  RH WIND       PRES   REMARKS
BLANDING       CLOUDY    65  58  79 NE6       30.25R
BRYCE CANYON   CLOUDY    61  54  77 W5        30.24S
CEDAR CITY     CLOUDY    72  48  42 SW5       30.09R
DELTA          CLOUDY    79  48  33 CALM      30.00R
HANKSVILLE     CLOUDY    73  61  64 S6        29.96R
MILFORD        CLOUDY    79  50  36 S10       30.02R
MOAB/CYNLANDS  TSTM      76  60  57 E9        29.97R
PRICE          MOCLDY    78  43  28 NW7       30.04R
ST GEORGE      CLOUDY    90  46  22 W8        29.90R
KANAB          MOCLDY    73  54  49 CALM      30.11R

$$

REGIONAL REPORTS     COLORADO/ARIZONA

CITY           SKY/WX    TMP DP  RH WIND       PRES   REMARKS
CRAIG, CO      CLOUDY    67  52  58 E6        30.10R
GRAND JUNCTION MOCLDY    81  49  32 E25G33    29.95R
RIFLE          CLOUDY    68  58  70 NE6       30.11R
MONTROSE       CLOUDY    78  47  33 S10       30.09R
CORTEZ         CLOUDY    70  52  52 N6        30.18R
PAGE, AZ       MOCLDY    85  49  28 W9        29.98R
GRAND CANYON   CLOUDY    67  55  65 CALM      30.21R
KINGMAN        CLOUDY    83  47  28 S6        29.95R
FLAGSTAFF      MOCLDY    59  59 100 SW5       30.26R

$$

REGIONAL REPORTS    NEVADA/IDAHO/WYOMING

CITY           SKY/WX    TMP DP  RH WIND       PRES   REMARKS
LAS VEGAS, NV  PTCLDY    97  49  19 SE7       29.77R HX  94
ELY            CLOUDY    71  49  45 W3        30.14S
ELKO           CLOUDY    72  51  47 W15       30.06R
POCATELLO, ID  CLEAR     80  47  31 SW9       29.89R
BURLEY         CLOUDY    79  50  36 S16       29.87S
EVANSTON, WY   MOCLDY    70  47  43 SW13      30.15R
ROCK SPRINGS   PTCLDY    73  44  35 SW16      30.07S
KEMMERER       MOCLDY   N/A N/A N/A SE7       30.14R

$$



USA.gov is the U.S. government's official web portal to all federal, state and local government web resources and services.